Location: Jaite
(41.2884°N, 81.5737°W)
Time: 10:55:00
(UTC+00:00)

Lacrosse 5 rocket - Pass Details

Date: 18 January 2020
Orbit: 465 x 632 km, 57.0° (Epoch: 16 February)

Event Time Altitude Azimuth Distance (km) Brightness Sun altitude
Exits shadow 11:33:31 12° 330° (NNW) 1,869 3.6 -14.0°
Maximum altitude 11:34:37 13° 346° (NNW) 1,810 3.7 -13.8°
Drops below altitude 10° 11:36:43 10° 13° (NNE) 1,986 4.1 -13.4°
Sets 11:40:14 0° 42° (NE) 2,863 5.3 -12.8°
